Regional Weather Roundup
Issued by NWS Upton, NY

Current Version | Previous Version | Text Only | Print | Product List | Glossary On
Versions: 1 2 3 4 5 6 7 8 9 10 11 12 13 14 15 16 17 18 19 20 21 22 23 24 25 26 27
000 ASUS41 KOKX 191508 RWROKX REGIONAL WEATHER ROUNDUP NATIONAL WEATHER SERVICE NEW YORK NY 1100 AM EDT SAT AUG 19 2017 NOTE: "FAIR" INDICATES FEW OR NO CLOUDS BELOW 12,000 FEET WITH NO SIGNIFICANT WEATHER AND/OR OBSTRUCTIONS TO VISIBILITY. NYZ071-072-176-178-NJZ106-104-191600- NEW YORK CITY METRO AREA CITY SKY/WX TMP DP RH WIND PRES REMARKS Central Park SUNNY 82 65 56 N6 29.89S Bronx Bot Gard N/A 82 63 51 N7 29.87R LaGuardia APRT MOSUNNY 83 65 54 NW7 29.85S Kennedy INTL PTSUNNY 85 67 54 W7 29.87R Breezy Point N/A 77 N/A N/A SW6 N/A Newark/Liberty MOSUNNY 85 64 49 CALM 29.86R Teterboro SUNNY 83 66 56 VRB5 29.85R $$ NYZ177-179-078>081-191600- LONG ISLAND NEW YORK CITY SKY/WX TMP DP RH WIND PRES REMARKS Jones Beach N/A 82 N/A N/A W1 N/A Matinecock PT N/A 77 N/A N/A SW5 N/A Farmingdale MOSUNNY 82 69 64 CALM 29.86S MacArthur/ISP PTSUNNY 84 67 56 CALM 29.85S Shirley MOSUNNY 84 68 58 CALM 29.86R Mt Sinai Harb N/A 81 N/A N/A NW5 N/A Westhampton MOSUNNY 83 66 56 CALM 29.87R East Hampton FAIR 81 69 66 CALM 29.84S Montauk N/A 80 71 74 W7 29.85S $$ NYZ052-065-067-191600- HUDSON VALLEY CITY SKY/WX TMP DP RH WIND PRES REMARKS White Plains MOSUNNY 81 66 60 CALM 29.87R Larchmont Harb N/A 79 N/A N/A S6 N/A Croton On Huds N/A 79 N/A N/A W3 N/A Newburgh MOSUNNY 77 68 73 W12 29.88R Montgomery MOSUNNY 80 66 62 CALM 29.86S Poughkeepsie MOSUNNY 78 67 68 VRB3 29.85R Albany PTSUNNY 78 65 63 NW8 29.84S $$ NJZ001-105-106-008-010-013-015-019>022-104-191600- NEW JERSEY CITY SKY/WX TMP DP RH WIND PRES REMARKS Newark/Liberty MOSUNNY 85 64 49 CALM 29.86R Teterboro SUNNY 83 66 56 VRB5 29.85R Caldwell MOSUNNY 82 65 56 NW7 29.87S Somerville SUNNY 84 66 54 VRB5 29.86R Linden FAIR 82 65 56 CALM 29.86S Perth Amboy N/A 81 N/A N/A W5G10 N/A Sussex MOSUNNY 80 66 62 VRB5 29.87S Andover N/A 79 65 62 SW6 29.89R Trenton SUNNY 82 66 58 NW7 29.88S Millville MOSUNNY 85 71 63 N7 29.90R HX 90 Atlantic City MOSUNNY 83 72 69 N7 29.89S Wrightstown SUNNY 83 69 61 N8 29.86R Toms River MOSUNNY 83 69 62 VRB3 29.89S Belmar PTSUNNY 82 70 66 CALM 29.89S $$ PAZ047>061-062-071-191600- EASTERN PENNSYLVANIA CITY SKY/WX TMP DP RH WIND PRES REMARKS Philadelphia MOSUNNY 84 64 50 NW13 29.89S Allentown MOSUNNY 80 65 59 MISG 29.89S Scranton PTSUNNY 77 62 59 W10 29.90S $$ CTZ002-004>006-009-010-012-RIZ004-006-007-MAZ004-011-015-191600- SOUTHERN NEW ENGLAND IN CT CITY SKY/WX TMP DP RH WIND PRES REMARKS Bradley INTL PTSUNNY 82 65 56 NW5 29.84R Hartford MOSUNNY 82 67 60 NE3 29.83S Danbury PTSUNNY 81 67 62 CALM 29.87S Wtrbury/Oxford MOSUNNY 77 68 73 VRB3 29.88S Norwalk Harbor N/A 75 N/A N/A S8 N/A Bridgeport MOSUNNY 81 71 71 SW8 29.85R Meriden MOSUNNY 81 65 58 VRB3 29.84S New Haven MOSUNNY 80 70 71 SW7 29.85R Chester FAIR 82 66 57 VRB5 29.85S Groton SUNNY 81 72 74 S7 29.82S Wilimantic MOSUNNY 81 67 62 NW6 29.83F IN RI CITY SKY/WX TMP DP RH WIND PRES REMARKS Providence PTSUNNY 84 71 65 CALM 29.82S Block Island MOSUNNY 78 72 81 W8 29.84S Westerly SUNNY 86 71 60 VRB5 29.83S HX 91 IN MA CITY SKY/WX TMP DP RH WIND PRES REMARKS Boston PTSUNNY 68 66 93 SE7 29.82S Worcester SUNNY 78 64 61 SW7 29.85S Westfield MOSUNNY 81 66 60 NW8 29.84R Provincetown CLOUDY 67 66 97 NW7 29.84R FOG Nantucket CLOUDY 73 72 96 SW9 29.83S $$ ANZ330-335-338-340-345-350-353-355-191600- COASTAL MARINE OBSERVATIONS STATION/POSITION TIME SKY/WX TEMP WIND PRES VSBY WAVE AIR SEA DIR/SP/G HT/PER (UTC) (F) (DEG/KT/KT) (MB) (MI) (FT/S) NY HARB ENTRANCE 1350 74 74 280/ 6/ 6 1010.6 3/ 6 GREAT SOUTH BAY 1430 79 78 CALM N/A 23 SSW MONTAUK P 1350 72 71 1010.6 4/ 7 15 E BARNEGAT LI 1430 77 N/A 3/ 6 HUDSON CANYON 1350 75 74 230/ 6/ 6 1011.2 4/ 6 KINGS POINT 1430 78 74 30/ 2/ 2 1011.0 EXECUTION ROCKS NOT AVBL WESTERN LI SOUND NOT AVBL CENTRAL LI SOUND NOT AVBL EASTERN LI SOUND NOT AVBL ROBBINS REEF 1424 150/ 2/ 4 1011.7 $$ >>>>>>>>>>>>>>>>>>>>>>>>>>>> KEY <<<<<<<<<<<<<<<<<<<<<<<<<<< > < > SKY/WX - Sky Condition/Present Weather < > TMP - Temperature in Fahrenheit < > DP - Dew Point in Fahrenheit < > RH - Relative Humidity in Percent < > WIND - Direction (from) and Speed in MPH < > PRES - Mean Sea Level Pressure (inches of Hg) < > WCI - Wind Chill Index < > VSB - VISIBILITY IN MILES < > HX - HEAT INDEX < > TC - TEMPERATURE IN CELSIUS < > VRB - VARIABLE WIND DIRECTION < > < >>>>>>>>>>>>>>>>>>>>>>>>>>>> KEY <<<<<<<<<<<<<<<<<<<<<<<<<<<

USA.gov is the U.S. government's official web portal to all federal, state and local government web resources and services.